Weather History for LIRA - October, 2013

Change the Weather History Date:

Tuesday, October 8, 2013

  Actual Average Record
Temperature  
Mean Temperature 65 °F -  
Max Temperature 71 °F 68 °F 78 °F (2001)
Min Temperature 59 °F 49 °F 46 °F (1999)
Growing Degree Days 15 (Base 50)    
Moisture  
Dew Point 59 °F    
Average Humidity 83    
Maximum Humidity 94    
Minimum Humidity 60    
Precipitation  
Precipitation 0.00 in 0.14 in - ()
Sea Level Pressure  
Sea Level Pressure 30.07 in    
Wind  
Wind Speed 3 mph ()    
Max Wind Speed 10 mph    
Max Gust Speed -    
Visibility 6.0 miles    
Events Rain , Thunderstorm    
Averages and records for this station are not official NWS values.
T = Trace of Precipitation, MM = Missing Value Source: Averaged Metar Reports

Daily Weather History Graph

Daily Weather History Graph

Search for Another Location

Airport or City:

Trip Planner

Search our weather history database for the weather conditions in past years. The results will help you decide how hot, cold, wet, or windy it might be!

Date:

Astronomy

Oct. 08, 2013 Rise Set
Actual Time 7:14 AM CEST 6:39 PM CEST
Civil Twilight 6:46 AM CEST 7:07 PM CEST
Nautical Twilight 6:14 AM CEST 7:39 PM CEST
Astronomical Twilight 5:41 AM CEST 8:11 PM CEST
Moon 10:53 AM CEST (10/8) 8:57 PM CEST (10/8)
Length of Visible Light 12h 21m
Length of Day
11h 25m
Waxing Crescent, 14% of the Moon is Illuminated
Oct 8
Waxing Crescent
Oct 12
First Quarter
Oct 19
Full
Oct 27
Last Quarter
Nov 3
New

Hourly Weather History & Observations

Time (CEST) Temp. Dew Point Humidity Pressure Visibility Wind Dir Wind Speed Gust Speed Precip Events Conditions
12:15 AM 64.4 °F 60.8 °F 88% 30.06 in 6.2 mi Calm Calm - N/A   Scattered Clouds
12:45 AM 62.6 °F 60.8 °F 94% 30.09 in 6.2 mi Calm Calm - N/A   Scattered Clouds
1:15 AM 62.6 °F 59.0 °F 88% 30.09 in 6.2 mi Calm Calm - N/A   Partly Cloudy
1:45 AM 62.6 °F 59.0 °F 88% 30.09 in 6.2 mi Calm Calm - N/A   Scattered Clouds
2:15 AM 60.8 °F 57.2 °F 88% 30.09 in 6.2 mi NNE 2.3 mph - N/A   Scattered Clouds
2:45 AM 60.8 °F 57.2 °F 88% 30.09 in 6.2 mi Calm Calm - N/A   Partly Cloudy
3:15 AM 60.8 °F 57.2 °F 88% 30.09 in 6.2 mi North 1.2 mph - N/A   Partly Cloudy
3:45 AM 60.8 °F 57.2 °F 88% 30.06 in 6.2 mi Calm Calm - N/A   Partly Cloudy
4:15 AM 60.8 °F 57.2 °F 88% 30.06 in 6.2 mi ENE 1.2 mph - N/A   Partly Cloudy
4:45 AM 60.8 °F 57.2 °F 88% 30.06 in 6.2 mi Calm Calm - N/A   Partly Cloudy
5:15 AM 60.8 °F 57.2 °F 88% 30.04 in 6.2 mi Calm Calm - N/A   Partly Cloudy
5:45 AM 59.0 °F 57.2 °F 94% 30.04 in 6.2 mi ENE 2.3 mph - N/A   Partly Cloudy
6:15 AM 59.0 °F 57.2 °F 94% 30.04 in 6.2 mi NE 4.6 mph - N/A   Partly Cloudy
6:45 AM 60.8 °F 57.2 °F 88% 30.04 in 6.2 mi East 6.9 mph - N/A   Scattered Clouds
7:15 AM 60.8 °F 57.2 °F 88% 30.04 in 6.2 mi NE 4.6 mph - N/A   Scattered Clouds
7:45 AM 62.6 °F 57.2 °F 82% 30.04 in 6.2 mi ENE 5.8 mph - N/A   Scattered Clouds
8:15 AM 64.4 °F 59.0 °F 83% 30.04 in 6.2 mi ENE 6.9 mph - N/A   Scattered Clouds
8:45 AM 66.2 °F 60.8 °F 83% 30.06 in 6.2 mi ENE 4.6 mph - N/A   Scattered Clouds
9:15 AM 69.8 °F 59.0 °F 68% 30.04 in 6.2 mi ESE 9.2 mph - N/A   Scattered Clouds
9:45 AM 69.8 °F 60.8 °F 73% 30.06 in 6.2 mi SE 9.2 mph - N/A Rain , Thunderstorm Light Thunderstorms and Rain
10:15 AM 62.6 °F 59.0 °F 88% 30.09 in 3.1 mi WSW 10.4 mph - N/A Rain , Thunderstorm Light Thunderstorms and Rain
10:45 AM 64.4 °F 60.8 °F 88% 30.09 in 5.0 mi South 5.8 mph - N/A Rain , Thunderstorm Light Thunderstorms and Rain
11:15 AM 64.4 °F 60.8 °F 88% 30.09 in 6.2 mi ESE 4.6 mph - N/A   Mostly Cloudy
11:45 AM 64.4 °F 60.8 °F 88% 30.09 in 6.2 mi North 3.5 mph - N/A   Scattered Clouds
12:15 PM 66.2 °F 62.6 °F 88% 30.09 in 6.2 mi NE 5.8 mph - N/A   Scattered Clouds
12:45 PM 68.0 °F 62.6 °F 83% 30.09 in 6.2 mi NE 2.3 mph - N/A   Scattered Clouds
1:15 PM 71.6 °F 57.2 °F 60% 30.06 in 6.2 mi South 3.5 mph - N/A   Scattered Clouds
1:45 PM 71.6 °F 57.2 °F 60% 30.06 in 6.2 mi ESE 3.5 mph - N/A   Scattered Clouds
2:15 PM 71.6 °F 57.2 °F 60% 30.06 in 6.2 mi South 5.8 mph - N/A   Scattered Clouds
2:45 PM 71.6 °F 57.2 °F 60% 30.06 in 6.2 mi SSE 6.9 mph - N/A Rain Light Rain Showers
3:15 PM 68.0 °F 60.8 °F 78% 30.06 in 4.3 mi South 10.4 mph - N/A Rain , Thunderstorm Thunderstorms and Rain
3:45 PM 68.0 °F 62.6 °F 83% 30.04 in 4.3 mi SSE 1.2 mph - N/A Rain , Thunderstorm Thunderstorms and Rain
4:15 PM 68.0 °F 62.6 °F 83% 30.06 in 6.2 mi Calm Calm - N/A   Scattered Clouds
4:45 PM 69.8 °F 64.4 °F 83% 30.06 in 6.2 mi SW 4.6 mph - N/A   Scattered Clouds
5:15 PM 69.8 °F 60.8 °F 73% 30.06 in 6.2 mi SSW 9.2 mph - N/A   Scattered Clouds
5:45 PM 69.8 °F 60.8 °F 73% 30.06 in 6.2 mi South 8.1 mph - N/A   Scattered Clouds
6:15 PM 68.0 °F 62.6 °F 83% 30.06 in 6.2 mi WSW 5.8 mph - N/A   Scattered Clouds
6:45 PM 68.0 °F 60.8 °F 78% 30.06 in 6.2 mi WNW 3.5 mph - N/A Thunderstorm Thunderstorm
7:15 PM 66.2 °F 57.2 °F 73% 30.09 in 6.2 mi Calm Calm - N/A Thunderstorm Thunderstorm
7:45 PM 64.4 °F 60.8 °F 88% 30.09 in 6.2 mi East 4.6 mph - N/A Rain , Thunderstorm Light Thunderstorms and Rain
8:15 PM 62.6 °F 59.0 °F 88% 30.09 in 6.2 mi SE 5.8 mph - N/A   Mostly Cloudy
8:45 PM 62.6 °F 59.0 °F 88% 30.09 in 6.2 mi SE 3.5 mph - N/A   Scattered Clouds
9:15 PM 62.6 °F 59.0 °F 88% 30.09 in 6.2 mi SE 3.5 mph - N/A   Scattered Clouds
9:45 PM 62.6 °F 59.0 °F 88% 30.09 in 6.2 mi East 4.6 mph - N/A   Scattered Clouds
10:15 PM 62.6 °F 59.0 °F 88% 30.09 in 6.2 mi SE 3.5 mph - N/A   Scattered Clouds
10:45 PM 62.6 °F 59.0 °F 88% 30.09 in 6.2 mi NE 2.3 mph - N/A   Scattered Clouds
11:15 PM 62.6 °F 59.0 °F 88% 30.09 in 6.2 mi ESE 1.2 mph - N/A   Scattered Clouds
11:45 PM 60.8 °F 59.0 °F 94% 30.09 in 6.2 mi SE 1.2 mph - N/A   Scattered Clouds